sat.trackr.live / text

‹ back to catalog

YUNYAO-1 45

NORAD 63346 · 2025-059C

PAYLOAD ACTIVE UNKNOWN

§ Identity

Operator
Country
PRC
Launch date
2025-03-21
Launch site
JSC
Launch vehicle
Mass (kg)
RCS (m²)

External: N2YO · Heavens-Above · Gunter

§ Orbital elements

Epoch: 2026-05-25T05:12:16.158816Z

Period
95.31 min
Inclination
97.6123°
Eccentricity
0.0014721
Mean motion
15.10859057 rev/d
Perigee alt
523.4 km
Apogee alt
543.8 km
Semi-major
6,911.7 km
B*
1.5154e-4
RAAN
326.8429°
Arg perigee
232.4336°
Mean anomaly
127.5557°
Rev number
6,483

§ Raw data

YUNYAO-1 451 63346U 25059C   26145.21685369  .00002461  00000+0  15154-3 0  99922 63346  97.6123 326.8429 0014721 232.4336 127.5557 15.10859057 64838

JSON: /api/v1/satellites/63346 · /tle

For live sub-satellite position, see the globe view (requires WebGL).

§ Visibility from observer

Set your observer location to see the next 7 days of passes ≥ 10°. The values pass through the URL so the page stays shareable.

No JS? Fill the form by hand. The geolocation button needs JavaScript.